QPF
0.00 0.00 0.01 0.01 0.01 0.01 0.01 0.01 0.01 0.01 0.01 0.01 0.01 0.01 0.01 0.01 0.01 0.01 0.01 0.01 0.01 0.01 0.01 0.01 0.02 0.02 0.02 0.02 0.02 0.02 0.02 0.03 0.03 0.03 0.02 0.01 0.00 0.01 0.01 0.01 0.00 0.00 0.00
0.00 0.00 0.00 0.00 0.01 0.01 0.00 0.00 0.01 0.01 0.01 0.01 0.01 0.01 0.01 0.01 0.01 0.01 0.01 0.01 0.01 0.01 0.01 0.01 0.01 0.01 0.01 0.01 0.01 0.01 0.02 0.02 0.03 0.02 0.02 0.01 0.00 0.00 0.01 0.01 0.01 0.01 0.01
0.00 0.00 0.00 0.00 0.00 0.00 0.00 0.00 0.00 0.00 0.00 0.01 0.01 0.01 0.01 0.01 0.01 0.01 0.01 0.01 0.01 0.01 0.01 0.01 0.01 0.01 0.01 0.01 0.01 0.01 0.02 0.02 0.02 0.02 0.01 0.01 0.00 0.00 0.01 0.02 0.02 0.01 0.01
0.00 0.00 0.00 0.00 0.00 0.00 0.00 0.00 0.00 0.00 0.01 0.01 0.01 0.01 0.01 0.01 0.01 0.01 0.00 0.01 0.01 0.01 0.01 0.01 0.01 0.01 0.01 0.01 0.01 0.01 0.01 0.01 0.01 0.01 0.00 0.01 0.01 0.00 0.01 0.02 0.03 0.03 0.03
0.00 0.00 0.00 0.00 0.00 0.00 0.00 0.00 0.00 0.00 0.01 0.01 0.01 0.01 0.01 0.00 0.00 0.00 0.00 0.00 0.01 0.01 0.01 0.01 0.01 0.01 0.01 0.01 0.01 0.01 0.01 0.01 0.00 0.00 0.00 0.00 0.01 0.01 0.01 0.02 0.03 0.04 0.04
0.00 0.00 0.00 0.00 0.00 0.00 0.00 0.00 0.00 0.00 0.00 0.00 0.00 0.00 0.00 0.00 0.00 0.00 0.00 0.00 0.00 0.01 0.01 0.01 0.01 0.01 0.01 0.01 0.01 0.01 0.01 0.00 0.00 0.00 0.00 0.00 0.00 0.01 0.01 0.02 0.03 0.04 0.04
0.00 0.00 0.00 0.00 0.00 0.00 0.00 0.00 0.00 0.00 0.00 0.00 0.00 0.00 0.00 0.00 0.00 0.00 0.00 0.00 0.00 0.01 0.01 0.01 0.01 0.01 0.01 0.01 0.00 0.00 0.00 0.00 0.00 0.00 0.00 0.00 0.00 0.00 0.01 0.02 0.04 0.05 0.05
0.00 0.00 0.00 0.00 0.00 0.00 0.00 0.00 0.00 0.00 0.00 0.00 0.00 0.00 0.00 0.00 0.00 0.00 0.00 0.00 0.00 0.00 0.00 0.00 0.00 0.00 0.01 0.00 0.00 0.00 0.00 0.00 0.00 0.00 0.00 0.00 0.00 0.01 0.02 0.03 0.04 0.06 0.07
0.00 0.00 0.00 0.00 0.00 0.00 0.00 0.00 0.00 0.00 0.00 0.00 0.00 0.00 0.00 0.00 0.00 0.00 0.00 0.00 0.00 0.00 0.00 0.00 0.00 0.00 0.00 0.00 0.00 0.00 0.00 0.00 0.00 0.00 0.00 0.00 0.00 0.01 0.02 0.03 0.04 0.05 0.07
0.00 0.00 0.00 0.00 0.00 0.00 0.00 0.00 0.00 0.00 0.00 0.00 0.00 0.00 0.00 0.00 0.00 0.00 0.00 0.00 0.00 0.00 0.00 0.00 0.00 0.00 0.00 0.00 0.00 0.00 0.00 0.00 0.00 0.00 0.00 0.00 0.00 0.00 0.01 0.03 0.04 0.05 0.06
0.00 0.00 0.00 0.00 0.00 0.00 0.00 0.00 0.00 0.00 0.00 0.00 0.00 0.00 0.00 0.00 0.00 0.00 0.00 0.00 0.00 0.00 0.00 0.00 0.00 0.00 0.00 0.00 0.00 0.00 0.00 0.00 0.00 0.00 0.00 0.00 0.00 0.00 0.01 0.02 0.03 0.04 0.05
0.00 0.00 0.00 0.00 0.00 0.00 0.00 0.00 0.00 0.00 0.00 0.00 0.00 0.00 0.00 0.00 0.00 0.00 0.00 0.00 0.00 0.00 0.00 0.00 0.00 0.00 0.00 0.00 0.00 0.00 0.00 0.00 0.00 0.00 0.00 0.00 0.00 0.00 0.00 0.01 0.01 0.03 0.04
0.00 0.00 0.00 0.00 0.00 0.00 0.00 0.00 0.00 0.00 0.00 0.00 0.00 0.00 0.00 0.00 0.00 0.00 0.00 0.00 0.00 0.00 0.00 0.00 0.00 0.00 0.00 0.00 0.00 0.00 0.00 0.00 0.00 0.00 0.00 0.00 0.00 0.00 0.00 0.00 0.01 0.01 0.03
0.00 0.00 0.00 0.00 0.00 0.00 0.00 0.00 0.00 0.00 0.00 0.00 0.00 0.00 0.00 0.00 0.00 0.00 0.00 0.00 0.00 0.00 0.00 0.00 0.00 0.00 0.00 0.00 0.00 0.00 0.00 0.00 0.00 0.00 0.00 0.00 0.00 0.00 0.00 0.00 0.00 0.01 0.02
0.00 0.00 0.00 0.00 0.00 0.00 0.00 0.00 0.00 0.00 0.00 0.00 0.00 0.00 0.00 0.00 0.00 0.00 0.00 0.00 0.00 0.00 0.00 0.00 0.00 0.00 0.00 0.00 0.00 0.00 0.00 0.00 0.00 0.00 0.00 0.00 0.00 0.00 0.00 0.00 0.00 0.01 0.02
0.00 0.00 0.00 0.00 0.00 0.00 0.00 0.00 0.00 0.00 0.00 0.00 0.00 0.00 0.00 0.00 0.00 0.00 0.00 0.00 0.00 0.00 0.00 0.00 0.00 0.00 0.00 0.00 0.00 0.00 0.00 0.00 0.00 0.00 0.00 0.00 0.00 0.00 0.00 0.00 0.00 0.00 0.01
0.00 0.00 0.00 0.00 0.00 0.00 0.00 0.00 0.00 0.00 0.00 0.00 0.00 0.00 0.00 0.00 0.00 0.00 0.00 0.00 0.00 0.00 0.00 0.00 0.00 0.00 0.00 0.00 0.00 0.00 0.00 0.00 0.00 0.00 0.00 0.00 0.00 0.00 0.00 0.00 0.00 0.00 0.01
0.00 0.00 0.00 0.00 0.00 0.00 0.00 0.00 0.00 0.00 0.00 0.00 0.00 0.00 0.00 0.00 0.00 0.00 0.00 0.00 0.00 0.00 0.00 0.00 0.00 0.00 0.00 0.00 0.00 0.00 0.00 0.00 0.00 0.00 0.00 0.00 0.00 0.00 0.00 0.00 0.00 0.00 0.01
0.00 0.00 0.00 0.00 0.00 0.00 0.00 0.00 0.00 0.00 0.00 0.00 0.00 0.00 0.00 0.00 0.00 0.00 0.00 0.00 0.00 0.00 0.00 0.00 0.00 0.00 0.00 0.00 0.00 0.00 0.00 0.00 0.00 0.00 0.00 0.00 0.00 0.00 0.00 0.00 0.00 0.00 0.00
0.00 0.00 0.00 0.00 0.00 0.00 0.00 0.00 0.00 0.00 0.00 0.00 0.00 0.00 0.00 0.00 0.00 0.00 0.00 0.00 0.00 0.00 0.00 0.00 0.00 0.00 0.00 0.00 0.00 0.00 0.00 0.00 0.00 0.00 0.00 0.00 0.00 0.00 0.00 0.00 0.00 0.00 0.01
0.00 0.00 0.00 0.00 0.00 0.00 0.00 0.00 0.00 0.00 0.00 0.00 0.00 0.00 0.00 0.00 0.00 0.00 0.00 0.00 0.00 0.00 0.00 0.00 0.00 0.00 0.00 0.00 0.00 0.00 0.00 0.00 0.00 0.00 0.00 0.00 0.00 0.00 0.00 0.00 0.00 0.00 0.00
0.00 0.00 0.00 0.00 0.00 0.00 0.00 0.00 0.00 0.00 0.00 0.00 0.00 0.00 0.00 0.00 0.00 0.00 0.00 0.00 0.00 0.00 0.00 0.00 0.00 0.00 0.00 0.00 0.00 0.00 0.00 0.00 0.00 0.00 0.00 0.00 0.00 0.00 0.00 0.01 0.01 0.00 0.00
0.00 0.00 0.00 0.00 0.00 0.00 0.00 0.00 0.00 0.00 0.00 0.00 0.00 0.00 0.00 0.00 0.00 0.00 0.00 0.00 0.00 0.00 0.00 0.00 0.00 0.00 0.00 0.00 0.00 0.00 0.01 0.01 0.00 0.00 0.00 0.00 0.00 0.00 0.00 0.00 0.01 0.01 0.01
0.00 0.00 0.00 0.00 0.00 0.00 0.00 0.00 0.00 0.00 0.00 0.00 0.00 0.00 0.00 0.00 0.00 0.00 0.00 0.00 0.00 0.00 0.00 0.00 0.00 0.00 0.00 0.00 0.00 0.00 0.01 0.02 0.02 0.01 0.00 0.00 0.00 0.00 0.00 0.00 0.01 0.02 0.01
0.00 0.00 0.00 0.00 0.00 0.00 0.00 0.00 0.00 0.00 0.00 0.00 0.00 0.00 0.00 0.00 0.00 0.00 0.00 0.00 0.00 0.00 0.00 0.00 0.00 0.00 0.00 0.00 0.00 0.00 0.00 0.00 0.01 0.03 0.01 0.00 0.00 0.00 0.00 0.00 0.01 0.02 0.02
0.00 0.00 0.00 0.00 0.00 0.00 0.00 0.00 0.00 0.00 0.00 0.00 0.00 0.00 0.00 0.00 0.00 0.00 0.00 0.00 0.00 0.00 0.00 0.00 0.00 0.00 0.00 0.00 0.00 0.00 0.01 0.01 0.01 0.02 0.02 0.01 0.00 0.00 0.00 0.00 0.01 0.02 0.02
MSLP
1032.17 1032.03 1031.60 1031.00 1030.36 1029.77 1029.28 1028.91 1028.61 1028.33 1028.00 1027.60 1027.12 1026.60 1026.08 1025.60 1025.20 1024.85 1024.54 1024.22 1023.83 1023.37 1022.83 1022.24 1021.64 1021.07 1020.56 1020.10 1019.67 1019.23 1018.76 1018.22 1017.62 1016.99 1016.38 1015.83 1015.38 1015.06 1014.85 1014.73 1014.66 1014.59 1014.51
1032.74 1032.55 1032.09 1031.48 1030.82 1030.23 1029.75 1029.38 1029.08 1028.79 1028.45 1028.05 1027.59 1027.09 1026.60 1026.15 1025.76 1025.42 1025.11 1024.77 1024.37 1023.89 1023.36 1022.78 1022.21 1021.67 1021.18 1020.73 1020.28 1019.81 1019.27 1018.65 1017.97 1017.24 1016.55 1015.93 1015.44 1015.07 1014.83 1014.69 1014.59 1014.51 1014.41
1033.41 1033.15 1032.63 1031.97 1031.29 1030.69 1030.20 1029.83 1029.53 1029.25 1028.94 1028.56 1028.13 1027.67 1027.21 1026.78 1026.40 1026.05 1025.70 1025.32 1024.88 1024.37 1023.82 1023.24 1022.69 1022.17 1021.71 1021.27 1020.83 1020.33 1019.74 1019.06 1018.30 1017.51 1016.75 1016.07 1015.53 1015.12 1014.84 1014.66 1014.53 1014.42 1014.31
1034.09 1033.74 1033.16 1032.45 1031.75 1031.14 1030.66 1030.30 1030.02 1029.76 1029.47 1029.13 1028.74 1028.31 1027.88 1027.46 1027.07 1026.69 1026.29 1025.85 1025.35 1024.80 1024.21 1023.63 1023.08 1022.59 1022.14 1021.72 1021.27 1020.76 1020.15 1019.43 1018.63 1017.79 1016.99 1016.27 1015.68 1015.23 1014.91 1014.68 1014.51 1014.36 1014.21
1034.67 1034.25 1033.61 1032.89 1032.19 1031.60 1031.14 1030.80 1030.54 1030.31 1030.04 1029.73 1029.36 1028.96 1028.55 1028.13 1027.72 1027.30 1026.85 1026.35 1025.79 1025.19 1024.57 1023.97 1023.42 1022.93 1022.49 1022.08 1021.63 1021.11 1020.49 1019.76 1018.94 1018.09 1017.27 1016.53 1015.90 1015.41 1015.04 1014.75 1014.52 1014.31 1014.12
1035.06 1034.60 1033.96 1033.26 1032.60 1032.05 1031.64 1031.33 1031.10 1030.88 1030.63 1030.32 1029.97 1029.57 1029.16 1028.73 1028.30 1027.85 1027.36 1026.80 1026.20 1025.55 1024.90 1024.28 1023.72 1023.22 1022.78 1022.36 1021.91 1021.39 1020.76 1020.04 1019.23 1018.39 1017.58 1016.83 1016.19 1015.66 1015.22 1014.86 1014.56 1014.28 1014.03
1035.25 1034.78 1034.18 1033.55 1032.98 1032.51 1032.16 1031.90 1031.68 1031.46 1031.19 1030.87 1030.50 1030.09 1029.67 1029.24 1028.79 1028.32 1027.80 1027.22 1026.58 1025.92 1025.24 1024.60 1024.01 1023.50 1023.04 1022.59 1022.12 1021.59 1020.97 1020.27 1019.49 1018.68 1017.89 1017.16 1016.51 1015.94 1015.45 1015.01 1014.62 1014.25 1013.93
1035.24 1034.82 1034.31 1033.79 1033.33 1032.97 1032.69 1032.47 1032.26 1032.01 1031.72 1031.35 1030.95 1030.51 1030.07 1029.62 1029.17 1028.69 1028.17 1027.59 1026.96 1026.28 1025.60 1024.94 1024.33 1023.78 1023.27 1022.79 1022.29 1021.74 1021.12 1020.43 1019.69 1018.93 1018.18 1017.47 1016.82 1016.22 1015.67 1015.16 1014.67 1014.22 1013.81
1035.12 1034.78 1034.39 1034.01 1033.68 1033.43 1033.23 1033.03 1032.81 1032.53 1032.18 1031.76 1031.30 1030.83 1030.36 1029.91 1029.46 1029.00 1028.49 1027.93 1027.31 1026.64 1025.96 1025.29 1024.65 1024.06 1023.50 1022.96 1022.41 1021.83 1021.20 1020.53 1019.82 1019.10 1018.40 1017.72 1017.08 1016.47 1015.87 1015.28 1014.70 1014.15 1013.66
1034.96 1034.73 1034.47 1034.24 1034.05 1033.89 1033.75 1033.57 1033.32 1032.99 1032.58 1032.10 1031.59 1031.08 1030.60 1030.14 1029.70 1029.25 1028.77 1028.23 1027.63 1026.99 1026.31 1025.63 1024.96 1024.32 1023.71 1023.10 1022.49 1021.87 1021.22 1020.54 1019.86 1019.19 1018.53 1017.89 1017.26 1016.63 1016.00 1015.34 1014.69 1014.06 1013.48
1034.85 1034.73 1034.61 1034.51 1034.43 1034.35 1034.23 1034.05 1033.77 1033.39 1032.91 1032.38 1031.84 1031.31 1030.81 1030.36 1029.92 1029.49 1029.02 1028.50 1027.92 1027.29 1026.61 1025.92 1025.23 1024.55 1023.88 1023.21 1022.54 1021.86 1021.18 1020.49 1019.82 1019.17 1018.55 1017.94 1017.33 1016.70 1016.04 1015.34 1014.62 1013.92 1013.27
1034.84 1034.83 1034.82 1034.81 1034.81 1034.76 1034.65 1034.44 1034.12 1033.70 1033.19 1032.63 1032.07 1031.53 1031.04 1030.59 1030.15 1029.72 1029.25 1028.73 1028.15 1027.52 1026.85 1026.15 1025.45 1024.73 1024.02 1023.29 1022.56 1021.83 1021.09 1020.38 1019.70 1019.06 1018.45 1017.86 1017.26 1016.64 1015.97 1015.25 1014.50 1013.75 1013.04
1034.94 1035.01 1035.08 1035.13 1035.15 1035.11 1034.98 1034.73 1034.37 1033.91 1033.39 1032.84 1032.29 1031.77 1031.30 1030.85 1030.41 1029.96 1029.47 1028.93 1028.33 1027.69 1027.01 1026.31 1025.59 1024.86 1024.11 1023.34 1022.56 1021.76 1020.97 1020.21 1019.50 1018.83 1018.22 1017.64 1017.06 1016.45 1015.80 1015.08 1014.32 1013.55 1012.81
1035.10 1035.24 1035.36 1035.43 1035.44 1035.36 1035.18 1034.89 1034.50 1034.03 1033.52 1033.00 1032.50 1032.03 1031.58 1031.14 1030.69 1030.20 1029.67 1029.08 1028.45 1027.79 1027.10 1026.39 1025.67 1024.94 1024.17 1023.37 1022.53 1021.68 1020.82 1019.99 1019.22 1018.52 1017.88 1017.29 1016.72 1016.14 1015.51 1014.82 1014.08 1013.31 1012.56
1035.29 1035.48 1035.62 1035.68 1035.65 1035.51 1035.26 1034.92 1034.51 1034.05 1033.58 1033.12 1032.69 1032.27 1031.86 1031.44 1030.97 1030.44 1029.86 1029.22 1028.54 1027.84 1027.13 1026.42 1025.71 1024.97 1024.20 1023.37 1022.49 1021.57 1020.64 1019.73 1018.88 1018.12 1017.44 1016.83 1016.26 1015.70 1015.12 1014.48 1013.78 1013.04 1012.30
1035.45 1035.68 1035.82 1035.84 1035.75 1035.55 1035.24 1034.85 1034.43 1033.99 1033.57 1033.19 1032.84 1032.49 1032.13 1031.72 1031.23 1030.67 1030.02 1029.33 1028.60 1027.86 1027.14 1026.43 1025.73 1024.99 1024.21 1023.36 1022.44 1021.45 1020.44 1019.44 1018.50 1017.65 1016.91 1016.27 1015.71 1015.17 1014.64 1014.06 1013.43 1012.74 1012.04
1035.53 1035.80 1035.94 1035.93 1035.79 1035.52 1035.15 1034.73 1034.30 1033.89 1033.53 1033.22 1032.94 1032.66 1032.34 1031.94 1031.45 1030.85 1030.17 1029.42 1028.65 1027.89 1027.16 1026.45 1025.75 1025.02 1024.22 1023.35 1022.37 1021.32 1020.23 1019.13 1018.09 1017.16 1016.35 1015.67 1015.10 1014.59 1014.11 1013.60 1013.05 1012.43 1011.76
1035.52 1035.83 1035.98 1035.96 1035.77 1035.45 1035.05 1034.60 1034.17 1033.78 1033.47 1033.21 1032.99 1032.76 1032.48 1032.10 1031.61 1031.00 1030.28 1029.51 1028.72 1027.95 1027.20 1026.49 1025.79 1025.05 1024.25 1023.34 1022.32 1021.21 1020.03 1018.85 1017.72 1016.70 1015.82 1015.10 1014.51 1014.02 1013.58 1013.14 1012.66 1012.11 1011.49
1035.43 1035.79 1035.97 1035.95 1035.75 1035.41 1034.98 1034.52 1034.09 1033.72 1033.42 1033.20 1033.01 1032.81 1032.54 1032.18 1031.69 1031.08 1030.37 1029.59 1028.80 1028.03 1027.28 1026.57 1025.86 1025.11 1024.28 1023.35 1022.29 1021.12 1019.89 1018.63 1017.43 1016.34 1015.40 1014.63 1014.01 1013.52 1013.11 1012.71 1012.29 1011.81 1011.24
1035.27 1035.70 1035.92 1035.93 1035.75 1035.41 1034.98 1034.52 1034.08 1033.71 1033.41 1033.18 1032.99 1032.79 1032.53 1032.17 1031.69 1031.10 1030.41 1029.66 1028.89 1028.12 1027.38 1026.67 1025.94 1025.18 1024.33 1023.37 1022.29 1021.10 1019.84 1018.55 1017.30 1016.15 1015.16 1014.33 1013.67 1013.16 1012.74 1012.36 1011.98 1011.54 1011.01
1035.07 1035.57 1035.85 1035.90 1035.76 1035.45 1035.05 1034.60 1034.16 1033.77 1033.44 1033.18 1032.96 1032.72 1032.45 1032.09 1031.63 1031.06 1030.41 1029.69 1028.95 1028.21 1027.48 1026.76 1026.02 1025.24 1024.38 1023.42 1022.34 1021.16 1019.90 1018.62 1017.36 1016.19 1015.15 1014.27 1013.55 1012.97 1012.51 1012.12 1011.73 1011.30 1010.80
1034.86 1035.41 1035.75 1035.86 1035.78 1035.52 1035.15 1034.72 1034.28 1033.87 1033.51 1033.19 1032.91 1032.63 1032.32 1031.95 1031.50 1030.96 1030.35 1029.68 1028.98 1028.26 1027.53 1026.80 1026.05 1025.26 1024.40 1023.45 1022.41 1021.28 1020.08 1018.85 1017.62 1016.46 1015.39 1014.45 1013.65 1012.98 1012.43 1011.97 1011.53 1011.09 1010.61
1034.65 1035.24 1035.63 1035.79 1035.76 1035.57 1035.25 1034.85 1034.42 1033.99 1033.58 1033.21 1032.86 1032.52 1032.16 1031.77 1031.32 1030.81 1030.24 1029.61 1028.93 1028.23 1027.50 1026.75 1025.98 1025.18 1024.33 1023.43 1022.46 1021.43 1020.34 1019.20 1018.05 1016.92 1015.84 1014.84 1013.94 1013.15 1012.47 1011.89 1011.38 1010.89 1010.39
1034.45 1035.05 1035.46 1035.67 1035.69 1035.55 1035.28 1034.93 1034.51 1034.07 1033.63 1033.20 1032.79 1032.39 1031.99 1031.57 1031.12 1030.62 1030.07 1029.45 1028.79 1028.08 1027.33 1026.56 1025.77 1024.96 1024.14 1023.30 1022.43 1021.53 1020.58 1019.58 1018.54 1017.47 1016.39 1015.33 1014.33 1013.40 1012.57 1011.84 1011.21 1010.65 1010.12
1034.26 1034.85 1035.25 1035.47 1035.53 1035.44 1035.23 1034.92 1034.53 1034.10 1033.65 1033.18 1032.72 1032.26 1031.81 1031.36 1030.89 1030.39 1029.84 1029.22 1028.54 1027.80 1027.01 1026.19 1025.37 1024.55 1023.76 1022.99 1022.24 1021.48 1020.70 1019.87 1018.96 1017.98 1016.92 1015.82 1014.71 1013.64 1012.64 1011.76 1010.99 1010.34 1009.78
1034.09 1034.63 1035.00 1035.20 1035.28 1035.22 1035.06 1034.80 1034.46 1034.06 1033.60 1033.12 1032.63 1032.14 1031.65 1031.17 1030.67 1030.14 1029.56 1028.92 1028.19 1027.40 1026.54 1025.66 1024.78 1023.94 1023.17 1022.47 1021.83 1021.22 1020.61 1019.95 1019.19 1018.30 1017.29 1016.17 1014.98 1013.78 1012.64 1011.60 1010.71 1009.97 1009.36
Thickness
5607 5607 5610 5614 5618 5620 5623 5625 5627 5629 5630 5632 5634 5635 5637 5639 5640 5642 5644 5646 5648 5651 5654 5657 5660 5664 5668 5673 5677 5682 5687 5692 5697 5702 5707 5712 5716 5720 5723 5726 5728 5733 5734
5600 5603 5606 5609 5612 5614 5617 5618 5620 5621 5623 5624 5625 5626 5628 5629 5631 5632 5634 5636 5638 5641 5644 5646 5649 5653 5657 5661 5666 5671 5676 5681 5687 5692 5699 5706 5711 5714 5717 5721 5724 5728 5730
5596 5598 5602 5603 5606 5608 5609 5611 5612 5613 5614 5615 5615 5616 5617 5618 5620 5622 5623 5625 5627 5630 5632 5635 5638 5642 5645 5649 5653 5659 5664 5670 5676 5682 5689 5699 5705 5708 5711 5715 5718 5722 5725
5592 5593 5595 5597 5599 5600 5601 5602 5603 5603 5604 5604 5604 5605 5605 5606 5608 5609 5610 5613 5615 5617 5620 5623 5626 5629 5634 5638 5642 5646 5652 5658 5664 5670 5680 5688 5694 5700 5703 5708 5712 5716 5720
5587 5588 5588 5590 5592 5593 5593 5593 5593 5593 5593 5592 5592 5592 5593 5593 5594 5595 5596 5598 5601 5603 5606 5609 5612 5616 5620 5625 5629 5634 5640 5646 5651 5660 5668 5675 5682 5689 5694 5699 5705 5710 5714
5582 5581 5581 5582 5584 5584 5584 5583 5583 5582 5581 5580 5579 5579 5579 5579 5579 5580 5581 5583 5585 5587 5590 5593 5597 5601 5606 5610 5616 5621 5627 5633 5639 5648 5655 5662 5670 5677 5683 5690 5696 5702 5708
5576 5574 5574 5574 5574 5574 5573 5572 5571 5570 5568 5567 5565 5565 5564 5563 5563 5564 5564 5566 5568 5570 5573 5576 5580 5584 5589 5594 5600 5605 5612 5618 5626 5634 5641 5648 5656 5663 5671 5679 5687 5694 5700
5569 5567 5566 5565 5564 5563 5562 5561 5559 5557 5555 5552 5550 5549 5547 5546 5545 5546 5545 5547 5548 5550 5553 5556 5560 5565 5570 5576 5582 5588 5595 5602 5611 5621 5627 5635 5643 5650 5658 5667 5676 5684 5692
5563 5561 5559 5558 5556 5553 5551 5548 5545 5542 5540 5537 5534 5532 5529 5528 5526 5525 5524 5525 5526 5528 5531 5534 5538 5543 5549 5555 5562 5569 5577 5584 5594 5605 5612 5621 5629 5635 5644 5654 5664 5673 5681
5557 5554 5552 5549 5546 5544 5540 5535 5531 5528 5525 5521 5518 5515 5512 5509 5507 5504 5502 5501 5501 5503 5505 5509 5514 5519 5526 5532 5540 5548 5556 5566 5578 5586 5596 5605 5613 5620 5630 5640 5650 5661 5670
5552 5548 5543 5540 5536 5532 5529 5524 5520 5516 5511 5507 5504 5499 5495 5491 5487 5483 5479 5477 5476 5476 5478 5481 5486 5492 5499 5508 5515 5524 5534 5546 5556 5566 5577 5586 5594 5604 5615 5626 5637 5647 5658
5547 5541 5535 5530 5525 5521 5517 5512 5507 5503 5497 5492 5486 5480 5474 5469 5464 5458 5454 5451 5449 5448 5449 5452 5456 5463 5470 5479 5488 5497 5509 5520 5532 5545 5557 5566 5575 5586 5599 5611 5622 5634 5645
5540 5532 5526 5520 5514 5509 5504 5500 5494 5488 5481 5474 5466 5458 5452 5445 5439 5433 5428 5425 5422 5420 5420 5421 5425 5430 5436 5445 5455 5467 5478 5491 5505 5520 5534 5545 5556 5568 5581 5594 5607 5620 5632
5532 5524 5517 5510 5503 5497 5491 5486 5479 5472 5464 5455 5445 5436 5427 5419 5411 5404 5398 5394 5391 5389 5388 5389 5392 5397 5403 5411 5421 5434 5447 5460 5475 5491 5509 5522 5534 5548 5562 5577 5591 5605 5618
5525 5516 5508 5500 5492 5485 5478 5471 5463 5454 5444 5434 5422 5411 5399 5390 5382 5375 5369 5364 5361 5358 5358 5359 5362 5367 5372 5380 5388 5399 5413 5428 5444 5461 5481 5497 5512 5527 5542 5558 5574 5589 5604
5516 5507 5498 5490 5481 5473 5465 5456 5447 5436 5425 5413 5400 5387 5375 5365 5357 5350 5344 5340 5336 5333 5331 5332 5334 5338 5343 5350 5358 5367 5380 5395 5413 5431 5450 5470 5487 5504 5521 5537 5554 5571 5587
5508 5498 5488 5479 5469 5460 5451 5441 5430 5418 5406 5393 5379 5366 5354 5344 5336 5329 5324 5319 5314 5311 5309 5310 5311 5313 5318 5324 5333 5341 5352 5365 5381 5399 5419 5440 5460 5480 5497 5515 5532 5550 5568
5500 5489 5478 5467 5457 5447 5436 5425 5413 5400 5386 5372 5359 5347 5336 5326 5317 5311 5305 5300 5295 5291 5289 5289 5289 5292 5296 5302 5309 5317 5326 5339 5353 5370 5388 5409 5430 5451 5472 5491 5509 5528 5547
5492 5480 5469 5457 5445 5434 5422 5409 5396 5381 5367 5353 5340 5329 5318 5309 5301 5294 5288 5283 5277 5274 5271 5269 5269 5270 5275 5280 5287 5296 5305 5316 5330 5344 5362 5380 5399 5420 5441 5464 5484 5505 5525
5483 5471 5459 5447 5434 5422 5409 5395 5380 5365 5350 5336 5323 5312 5302 5294 5286 5278 5273 5267 5261 5257 5254 5252 5251 5251 5253 5259 5267 5277 5287 5298 5310 5324 5337 5353 5370 5389 5412 5435 5458 5481 5503
5476 5463 5450 5437 5424 5410 5397 5382 5368 5353 5338 5324 5310 5299 5289 5280 5272 5265 5258 5252 5246 5241 5237 5233 5231 5232 5234 5237 5245 5259 5273 5285 5296 5305 5314 5327 5343 5361 5383 5405 5429 5453 5478
5469 5455 5441 5427 5413 5398 5383 5368 5353 5339 5326 5313 5300 5288 5278 5268 5260 5252 5245 5238 5231 5225 5221 5215 5212 5212 5215 5216 5221 5234 5252 5268 5282 5283 5293 5306 5320 5337 5356 5377 5400 5425 5450
5462 5446 5431 5417 5402 5387 5372 5357 5342 5329 5316 5304 5292 5280 5269 5259 5250 5241 5232 5224 5216 5209 5204 5198 5193 5192 5194 5196 5198 5204 5216 5236 5244 5261 5274 5286 5298 5314 5332 5352 5375 5399 5424
5454 5438 5423 5408 5393 5378 5362 5347 5333 5319 5308 5295 5282 5271 5261 5250 5241 5231 5221 5211 5203 5195 5188 5181 5175 5171 5171 5176 5180 5184 5193 5204 5216 5239 5253 5265 5278 5294 5312 5331 5352 5376 5399
5447 5431 5415 5400 5385 5368 5352 5337 5323 5309 5297 5285 5274 5264 5254 5244 5233 5222 5210 5200 5191 5182 5174 5166 5159 5155 5153 5155 5160 5166 5175 5187 5199 5213 5233 5247 5262 5278 5294 5312 5333 5355 5377
5441 5424 5408 5392 5377 5360 5344 5329 5314 5301 5289 5278 5268 5258 5248 5237 5226 5215 5202 5191 5181 5172 5163 5155 5147 5142 5139 5139 5143 5150 5159 5171 5184 5198 5214 5229 5246 5263 5279 5298 5318 5337 5357